Terug naar catalogus

DMSP 5D-2 F13 DEB

ActiefSSO
NORAD 40515·DEBRIS·🇺🇸 United States

Gelanceerd Mar 24, 1995 vanaf Vandenberg Space Force Base

Loading…

Volgende Passages (komende 24 uur)

TLE

VersSource: Space-Track

Epoch: Sep 14, 2026, 14:13 UTC

1 40515U 95015DB  26257.59299155  .00003372  00000-0  10922-2 0  9993
2 40515  98.8248 300.5969 0015387  20.3306 339.8491 14.39617224594505

Volg DMSP 5D-2 F13 DEB in realtime met AllMySat

Download on the App Store